CW4621 Weather Reports


Display with metric or nautical units.
time (UTC)temp
F
wind
direction
speed
MPH
gust
MPH
rain 1hr
in
rain 24hr
in
rain mn
in
humidity
%
barometer
mb
20260904112104 72 284 0.0 1.0 0.00 0.19 0.19 94 1011.1
20260904111605 72 218 0.0 1.0 0.00 0.19 0.19 93 1011.1
20260904111104 72 333 0.0 1.0 0.00 0.19 0.19 93 1011.1
20260904110604 72 8 0.0 2.0 0.00 0.19 0.19 93 1010.9
20260904110104 72 32 0.0 1.0 0.00 0.19 0.19 94 1010.8
20260904105604 72 2 0.0 1.0 0.00 0.19 0.19 94 1010.8
20260904104604 72 23 0.0 2.0 0.00 0.19 0.19 94 1010.7
20260904104104 72 5 0.0 1.0 0.00 0.19 0.19 94 1010.7
20260904103605 73 342 0.0 1.0 0.00 0.19 0.19 94 1010.7
20260904103104 73 281 1.0 3.0 0.00 0.19 0.19 94 1010.6
20260904102605 73 9 0.0 2.0 0.00 0.19 0.19 94 1010.5
20260904102104 73 335 1.0 2.0 0.00 0.20 0.19 95 1010.6
20260904101605 73 342 0.0 1.0 0.00 0.20 0.19 95 1010.6
20260904101105 73 294 0.0 1.0 0.00 0.20 0.19 95 1010.5
20260904100104 74 1 0.0 0.0 0.00 0.20 0.19 95 1010.6
20260904095104 74 355 0.0 2.0 0.00 0.22 0.19 95 1010.5
20260904094604 74 346 1.0 2.0 0.00 0.22 0.19 95 1010.5
20260904094104 74 330 0.0 1.0 0.00 0.22 0.19 95 1010.6
20260904093104 74 138 1.0 2.0 0.00 0.24 0.19 95 1010.7
20260904092605 74 37 0.0 1.0 0.00 0.25 0.19 95 1010.7
20260904092104 74 286 1.0 3.0 0.00 0.26 0.19 95 1010.6
20260904091605 74 300 0.0 3.0 0.00 0.27 0.19 95 1010.7
20260904091105 74 337 2.0 5.0 0.00 0.27 0.19 95 1010.7
20260904090604 74 231 0.0 3.0 0.00 0.29 0.19 95 1010.8
20260904085105 74 242 1.0 5.0 0.00 0.47 0.19 96 1010.8
20260904084604 74 293 1.0 5.0 0.00 0.48 0.19 96 1010.8
20260904083604 74 34 0.0 2.0 0.00 0.57 0.19 96 1010.8
20260904083105 74 192 1.0 6.0 0.00 0.58 0.19 96 1010.7
20260904082105 74 258 1.0 3.0 0.00 0.59 0.19 96 1010.9
20260904081604 74 278 0.0 2.0 0.00 0.63 0.19 95 1011.0
20260904081104 74 249 0.0 2.0 0.00 0.63 0.19 95 1010.9
20260904080604 74 241 0.0 2.0 0.00 0.63 0.19 95 1010.9
20260904080105 74 34 0.0 0.0 0.00 0.63 0.19 95 1010.9
20260904075604 74 329 0.0 1.0 0.00 0.64 0.19 95 1010.9
20260904074605 74 317 0.0 0.0 0.00 0.70 0.19 95 1011.0
20260904074104 74 326 0.0 0.0 0.00 0.70 0.19 95 1011.0
20260904073605 74 326 0.0 1.0 0.00 0.70 0.19 95 1010.9
20260904073104 74 326 0.0 1.0 0.00 0.70 0.19 95 1010.8
20260904072605 74 307 0.0 0.0 0.00 0.70 0.19 95 1010.6
20260904071604 74 190 0.0 0.0 0.00 0.70 0.19 95 1010.6
20260904071104 74 149 0.0 0.0 0.00 0.70 0.19 95 1010.5
20260904070604 74 149 0.0 0.0 0.00 0.70 0.19 95 1010.5
20260904070104 74 149 0.0 0.0 0.00 0.70 0.19 95 1010.3
20260904065604 74 149 0.0 0.0 0.00 0.70 0.19 95 1010.3
20260904065105 74 149 0.0 1.0 0.00 0.70 0.19 95 1010.3
20260904064605 74 149 0.0 0.0 0.00 0.71 0.19 95 1010.3
20260904063605 74 151 0.0 0.0 0.00 0.73 0.19 95 1010.2
20260904063104 74 151 0.0 0.0 0.00 0.76 0.19 94 1010.3
20260904062605 74 151 0.0 1.0 0.00 0.83 0.19 94 1010.3
20260904062104 74 151 0.0 0.0 0.00 1.06 0.19 94 1010.4
20260904061605 74 151 0.0 0.0 0.00 1.33 0.19 93 1010.4
20260904061104 74 151 0.0 0.0 0.00 1.36 0.19 93 1010.3
20260904060604 74 151 0.0 0.0 0.00 1.36 0.19 93 1010.3
20260904055604 74 151 0.0 0.0 0.01 1.36 0.19 93 1010.6
20260904055104 74 151 0.0 0.0 0.11 1.36 0.19 93 1010.8
20260904054104 74 199 0.0 0.0 0.12 1.36 0.19 92 1010.6
20260904053104 73 207 0.0 1.0 0.16 1.36 0.19 91 1010.8
20260904052605 73 207 0.0 0.0 0.19 1.36 0.19 90 1010.9
20260904051604 74 207 0.0 0.0 0.19 1.36 0.19 90 1011.2
20260904051104 74 207 0.0 1.0 0.19 1.36 0.19 90 1011.2
20260904050604 74 207 0.0 1.0 0.19 1.36 0.19 89 1011.2
20260904050104 74 353 0.0 3.0 0.19 1.36 0.19 89 1011.1
20260904044604 75 335 0.0 2.0 0.07 1.24 0.07 88 1011.5
20260904044105 76 343 2.0 5.0 0.07 1.24 0.07 88 1011.9
20260904043604 77 354 3.0 12.0 0.04 1.21 0.04 88 1012.2
20260904043104 77 21 3.0 9.0 0.03 1.20 0.03 87 1012.3
20260904042605 77 286 0.0 1.0 0.00 1.17 0.00 87 1012.2
20260904042104 77 195 0.0 0.0 0.00 1.17 0.00 86 1012.0
20260904041604 77 195 0.0 0.0 0.00 1.17 0.00 86 1011.6
20260904041105 77 195 0.0 0.0 0.00 1.17 0.00 86 1011.6
20260904040105 77 195 0.0 0.0 0.00 1.17 0.00 86 1011.6
20260904035604 77 195 0.0 0.0 0.00 1.17 1.17 86 1011.5
20260904035104 77 195 0.0 1.0 0.00 1.17 1.17 86 1011.6
20260904034604 77 222 0.0 1.0 0.00 1.17 1.17 86 1011.7
20260904034104 77 222 0.0 0.0 0.00 1.17 1.17 86 1011.8
20260904033104 77 222 0.0 0.0 0.00 1.17 1.17 85 1012.0
20260904032604 77 222 0.0 0.0 0.00 1.17 1.17 85 1012.1
20260904032104 77 222 0.0 0.0 0.00 1.17 1.17 85 1012.1
20260904031604 77 222 0.0 0.0 0.00 1.17 1.17 85 1012.2
20260904030104 78 222 0.0 0.0 0.00 1.17 1.17 85 1012.2
20260904025604 78 222 0.0 1.0 0.00 1.17 1.17 85 1012.1
20260904025104 78 191 0.0 0.0 0.00 1.17 1.17 84 1012.1
20260904024604 78 191 0.0 0.0 0.00 1.17 1.17 84 1012.1
20260904023605 78 191 0.0 0.0 0.00 1.17 1.17 84 1012.0
20260904022605 78 191 0.0 0.0 0.00 1.17 1.17 84 1012.0
20260904022105 78 191 0.0 0.0 0.00 1.17 1.17 83 1012.0
20260904021105 79 191 0.0 0.0 0.00 1.17 1.17 83 1012.2
20260904020105 79 191 0.0 1.0 0.00 1.17 1.17 83 1012.3
20260904015105 79 198 0.0 0.0 0.00 1.17 1.17 83 1012.3
20260904014605 79 198 0.0 0.0 0.00 1.17 1.17 83 1012.4
20260904014104 79 198 0.0 0.0 0.00 1.17 1.17 83 1012.6
20260904013605 79 198 0.0 1.0 0.00 1.17 1.17 83 1012.6
20260904013105 79 220 0.0 1.0 0.00 1.17 1.17 83 1012.5
20260904012605 79 220 0.0 1.0 0.00 1.17 1.17 83 1012.5
20260904012104 79 281 0.0 1.0 0.00 1.17 1.17 83 1012.6
20260904011605 79 259 0.0 1.0 0.00 1.17 1.17 83 1012.7
20260904011104 79 252 0.0 0.0 0.00 1.17 1.17 83 1012.8
20260904010606 80 292 0.0 1.0 0.00 1.17 1.17 82 1012.8
20260904010105 80 345 0.0 1.0 0.00 1.17 1.17 82 1012.8
20260904005605 80 259 0.0 1.0 0.00 1.17 1.17 82 1012.7
20260904004604 80 245 0.0 1.0 0.00 1.17 1.17 82 1012.5
20260904004106 80 244 0.0 1.0 0.00 1.17 1.17 82 1012.5
20260904003605 80 221 1.0 2.0 0.00 1.17 1.17 82 1012.5
20260904003104 80 241 0.0 1.0 0.00 1.17 1.17 82 1012.3
20260904002605 80 231 0.0 1.0 0.00 1.17 1.17 82 1012.3
20260904002104 80 231 0.0 1.0 0.00 1.17 1.17 82 1012.4
20260904001604 81 201 0.0 2.0 0.00 1.17 1.17 82 1012.4
20260904001105 81 212 0.0 1.0 0.00 1.17 1.17 81 1012.3
20260904000605 81 232 0.0 2.0 0.00 1.17 1.17 81 1012.4
20260904000105 81 283 0.0 1.0 0.00 1.17 1.17 81 1012.4
20260903235605 81 165 0.0 2.0 0.00 1.17 1.17 81 1012.3
20260903235105 81 245 1.0 3.0 0.00 1.17 1.17 81 1012.4
20260903234604 81 257 1.0 3.0 0.00 1.17 1.17 81 1012.2
20260903234105 82 231 1.0 2.0 0.00 1.17 1.17 81 1012.2
20260903233604 82 240 0.0 3.0 0.00 1.17 1.17 81 1012.1
20260903233105 82 169 1.0 3.0 0.00 1.17 1.17 81 1012.0
20260903232604 82 195 1.0 3.0 0.00 1.17 1.17 80 1012.0
20260903232104 82 285 1.0 2.0 0.00 1.17 1.17 80 1012.1
20260903231105 83 240 1.0 2.0 0.00 1.17 1.17 80 1011.9
20260903230604 83 224 1.0 3.0 0.00 1.17 1.17 79 1011.9
20260903230104 83 347 0.0 1.0 0.00 1.17 1.17 79 1011.9
20260903225604 83 236 1.0 3.0 0.00 1.17 1.17 78 1011.9
20260903225105 84 295 0.0 3.0 0.00 1.17 1.17 78 1011.7
20260903224604 84 225 1.0 5.0 0.00 1.17 1.17 77 1011.7
20260903223604 84 244 2.0 7.0 0.00 1.17 1.17 77 1011.7
20260903222104 85 256 1.0 6.0 0.00 1.17 1.17 76 1011.5
20260903221605 85 179 2.0 3.0 0.00 1.17 1.17 76 1011.7
20260903221104 86 245 0.0 3.0 0.00 1.17 1.17 76 1011.7
20260903220604 86 341 0.0 3.0 0.00 1.17 1.17 75 1011.7
20260903220104 86 217 0.0 2.0 0.00 1.17 1.17 75 1011.6
20260903215605 86 302 1.0 3.0 0.00 1.17 1.17 75 1011.5
20260903215104 86 245 1.0 6.0 0.00 1.17 1.17 75 1011.4
20260903214104 86 138 1.0 3.0 0.00 1.17 1.17 75 1011.4
20260903213605 86 224 2.0 6.0 0.00 1.17 1.17 75 1011.5
20260903213105 86 139 1.0 2.0 0.00 1.17 1.17 76 1011.5
20260903212604 86 227 3.0 7.0 0.00 1.17 1.17 75 1011.5
20260903212105 86 154 1.0 5.0 0.00 1.17 1.17 75 1011.6
20260903211104 87 210 1.0 5.0 0.00 1.17 1.17 74 1011.4
20260903210604 88 196 1.0 5.0 0.00 1.17 1.17 73 1011.4
20260903210104 88 163 1.0 8.0 0.00 1.17 1.17 73 1011.4
20260903205604 88 273 1.0 3.0 0.00 1.17 1.17 73 1011.5
20260903205104 88 254 2.0 5.0 0.00 1.17 1.17 73 1011.5
20260903204104 88 229 3.0 6.0 0.00 1.17 1.17 72 1011.6
20260903203604 88 44 1.0 5.0 0.00 1.17 1.17 73 1011.5
20260903203104 88 213 1.0 5.0 0.00 1.17 1.17 72 1011.5
20260903202105 87 196 2.0 5.0 0.00 1.17 1.17 73 1011.7
20260903201605 87 333 2.0 5.0 0.00 1.17 1.17 72 1011.8
20260903201104 87 220 2.0 6.0 0.00 1.17 1.17 72 1011.8
20260903200605 87 222 3.0 6.0 0.00 1.17 1.17 72 1011.9
20260903200104 87 268 2.0 6.0 0.00 1.17 1.17 72 1011.9
20260903195604 87 163 2.0 5.0 0.00 1.17 1.17 72 1012.0
20260903195105 87 283 2.0 6.0 0.00 1.17 1.17 71 1012.1
20260903194604 87 242 2.0 10.0 0.00 1.17 1.17 72 1012.1
20260903194104 88 210 2.0 5.0 0.00 1.17 1.17 72 1012.0
20260903193604 88 241 3.0 7.0 0.00 1.17 1.17 71 1012.2
20260903192104 88 160 1.0 5.0 0.00 1.17 1.17 72 1012.5
20260903191105 87 274 2.0 10.0 0.00 1.17 1.17 72 1012.8
20260903190604 87 229 1.0 3.0 0.00 1.17 1.17 73 1012.8
20260903190104 87 59 3.0 8.0 0.00 1.17 1.17 74 1013.0
20260903185605 87 157 1.0 6.0 0.00 1.17 1.17 74 1013.0
20260903185104 87 218 2.0 5.0 0.00 1.17 1.17 74 1013.0
20260903184605 87 127 1.0 3.0 0.00 1.17 1.17 73 1012.9
20260903184104 87 193 3.0 9.0 0.00 1.17 1.17 73 1012.9
20260903183604 87 271 2.0 3.0 0.00 1.17 1.17 73 1012.8
20260903183104 87 258 2.0 7.0 0.00 1.18 1.17 72 1012.8
20260903182605 87 325 2.0 7.0 0.00 1.18 1.17 74 1012.8
20260903182104 86 22 2.0 6.0 0.00 1.18 1.17 75 1012.8
20260903181604 86 221 2.0 6.0 0.00 1.18 1.17 74 1012.9
20260903181104 86 248 1.0 3.0 0.00 1.19 1.17 75 1012.8
20260903180604 86 84 1.0 5.0 0.00 1.20 1.17 75 1012.9
20260903175605 86 230 3.0 7.0 0.00 1.21 1.17 72 1013.2
20260903175104 86 215 1.0 5.0 0.00 1.21 1.17 75 1013.3
20260903174604 86 232 2.0 7.0 0.00 1.21 1.17 75 1013.4
20260903174104 86 255 2.0 3.0 0.00 1.21 1.17 75 1013.4
20260903173104 85 237 2.0 6.0 0.00 1.21 1.17 76 1013.6
20260903172605 85 240 2.0 7.0 0.00 1.21 1.17 76 1013.6
20260903171604 86 274 2.0 7.0 0.00 1.21 1.17 75 1013.7
20260903171104 86 16 1.0 3.0 0.00 1.21 1.17 77 1013.8
20260903170605 85 286 1.0 7.0 0.00 1.21 1.17 77 1013.8
20260903170105 85 232 3.0 8.0 0.00 1.21 1.17 77 1013.9
20260903165604 86 228 1.0 2.0 0.00 1.21 1.17 77 1014.0
20260903165105 85 124 1.0 3.0 0.00 1.21 1.17 79 1013.9
20260903164605 85 318 2.0 6.0 0.00 1.21 1.17 78 1014.1
20260903164104 85 245 2.0 6.0 0.00 1.21 1.17 79 1014.3
20260903163604 85 251 2.0 5.0 0.00 1.21 1.17 79 1014.5
20260903163104 84 235 3.0 6.0 0.00 1.21 1.17 80 1014.7
20260903162605 83 230 2.0 6.0 0.00 1.21 1.17 80 1014.8
20260903162105 83 343 2.0 7.0 0.00 1.21 1.17 82 1014.8
20260903161604 83 237 2.0 12.0 0.00 1.21 1.17 81 1014.9
20260903161104 83 191 2.0 7.0 0.00 1.21 1.17 82 1014.9
20260903160104 83 209 2.0 8.0 0.00 1.21 1.17 82 1014.8
20260903155604 82 233 2.0 7.0 0.00 1.21 1.17 83 1014.8
20260903155104 82 226 2.0 7.0 0.00 1.21 1.17 83 1014.7
20260903154604 82 239 3.0 10.0 0.00 1.21 1.17 83 1014.6
20260903154104 82 228 2.0 9.0 0.00 1.21 1.17 83 1014.6
20260903153605 82 223 1.0 3.0 0.00 1.21 1.17 84 1014.6
20260903153104 82 260 0.0 5.0 0.00 1.21 1.17 84 1014.8
20260903152604 82 301 2.0 5.0 0.00 1.21 1.17 84 1014.9
20260903151604 81 112 1.0 5.0 0.00 1.21 1.17 85 1014.9
20260903151105 81 19 1.0 3.0 0.00 1.21 1.17 85 1014.9
20260903150604 81 346 1.0 3.0 0.00 1.21 1.17 86 1014.9
20260903150104 81 321 1.0 2.0 0.00 1.21 1.17 86 1014.8
20260903145604 80 212 1.0 3.0 0.00 1.21 1.17 86 1014.8
20260903144604 80 5 2.0 6.0 0.00 1.21 1.17 87 1014.8
20260903144105 80 301 2.0 7.0 0.00 1.21 1.17 87 1014.8
20260903143604 80 262 2.0 9.0 0.00 1.21 1.17 87 1014.7
20260903141604 79 231 1.0 7.0 0.00 1.21 1.17 88 1014.7
20260903141104 79 223 3.0 8.0 0.00 1.21 1.17 87 1014.7
20260903140604 79 229 2.0 7.0 0.00 1.21 1.17 88 1014.6
20260903140105 79 248 2.0 5.0 0.00 1.21 1.17 89 1014.5
20260903135604 78 237 2.0 5.0 0.00 1.21 1.17 89 1014.3
20260903135105 78 210 2.0 5.0 0.00 1.21 1.17 91 1014.2
20260903134605 77 350 1.0 2.0 0.00 1.21 1.17 93 1014.1
20260903134105 76 115 1.0 2.0 0.00 1.21 1.17 93 1013.9
20260903133104 75 356 1.0 3.0 0.00 1.21 1.17 95 1014.1
20260903132604 75 227 0.0 2.0 0.00 1.21 1.17 95 1014.4
20260903132106 74 280 1.0 3.0 0.00 1.21 1.17 95 1014.4
20260903131105 74 139 0.0 1.0 0.00 1.21 1.17 96 1014.5
20260903130605 73 295 1.0 2.0 0.00 1.21 1.17 96 1014.5
20260903125605 72 131 0.0 1.0 0.00 1.21 1.17 96 1014.5
20260903125105 72 227 1.0 2.0 0.00 1.21 1.17 96 1014.7
20260903124105 72 58 1.0 3.0 0.00 1.21 1.17 96 1014.4
20260903123604 72 223 2.0 6.0 0.00 1.21 1.17 96 1013.7
20260903123105 72 138 2.0 8.0 0.00 1.21 1.17 96 1013.4
20260903122604 72 136 2.0 8.0 0.00 1.21 1.17 96 1013.6
20260903122104 72 175 2.0 8.0 0.00 1.21 1.17 96 1014.0
20260903121105 72 150 1.0 3.0 0.00 1.21 1.17 96 1014.6
20260903120605 71 233 1.0 3.0 0.00 1.21 1.17 96 1015.2
20260903120104 71 231 1.0 3.0 0.00 1.21 1.17 96 1015.4
20260903115605 71 138 1.0 3.0 0.00 1.21 1.17 96 1015.3
20260903115105 71 76 1.0 3.0 0.00 1.21 1.17 96 1015.4
20260903114604 71 164 1.0 3.0 0.00 1.21 1.17 96 1015.5
20260903114105 71 221 1.0 2.0 0.00 1.21 1.17 96 1015.6
20260903113605 71 167 0.0 1.0 0.00 1.21 1.17 96 1015.9
20260903113104 71 241 0.0 2.0 0.00 1.21 1.17 96 1015.9
20260903112604 71 246 1.0 2.0 0.00 1.21 1.17 96 1016.0